Temp
73 78 81 82 82 82 82 80 82 83 83 83 83 83 83 84 83 83 83 83 83 84 84 84 84 84 84 84 84 84 84 83 83 83 83 83 82 82 83 83 82 82 82
77 80 81 81 82 81 82 82 82 82 82 82 82 83 83 84 84 83 83 83 84 84 84 84 84 84 84 84 84 84 84 83 83 84 84 84 84 83 83 83 83 82 82
78 80 80 81 82 82 82 82 82 82 83 83 82 83 84 83 84 83 84 84 84 84 84 84 84 84 84 84 84 84 84 83 82 83 83 80 81 83 83 83 83 82 82
79 79 79 81 81 82 81 82 82 83 83 83 83 83 83 83 84 84 84 84 84 84 84 84 84 84 84 84 83 83 83 83 83 83 80 81 83 83 83 83 82 82 81
78 77 79 82 82 82 82 82 82 83 83 83 83 83 84 84 84 84 84 84 84 84 84 84 84 83 83 83 82 83 82 83 84 83 77 75 76 82 83 82 82 82 81
77 76 81 82 83 82 82 82 83 83 83 83 83 84 84 84 84 84 84 84 84 84 84 84 84 84 83 83 82 82 83 83 84 80 77 78 77 82 82 82 82 82 81
77 79 81 82 82 83 82 83 83 82 83 84 84 84 84 84 84 84 84 84 84 83 84 84 84 84 83 83 83 82 83 84 80 78 77 76 77 82 82 82 82 81 81
78 79 81 82 82 83 83 83 83 83 84 84 84 84 84 84 83 83 84 84 84 84 83 84 84 83 83 82 82 83 83 85 83 79 78 75 79 81 82 82 81 81 81
80 79 80 81 82 83 83 83 83 83 84 84 84 83 83 84 84 83 83 83 84 83 83 83 83 83 83 82 82 83 83 84 76 77 80 75 80 82 82 82 81 81 81
79 78 77 79 81 80 81 83 83 83 83 84 84 84 84 84 84 84 82 83 83 83 83 83 83 83 82 82 82 83 83 84 77 79 78 75 80 82 82 82 81 81 81
77 76 76 76 75 77 79 82 83 84 84 84 84 84 83 78 79 81 81 83 83 83 83 83 83 83 82 82 83 83 82 78 77 78 77 79 80 82 82 82 81 81 81
74 75 76 76 75 75 81 79 77 80 79 78 79 80 78 76 76 80 82 83 84 84 84 83 83 83 82 76 76 80 78 78 77 79 77 80 80 82 82 81 81 81 81
75 77 76 76 75 76 79 77 75 76 75 75 77 76 76 75 75 76 75 79 78 82 78 80 79 77 76 76 76 75 79 78 78 78 80 80 80 82 82 81 81 81 81
76 77 77 77 77 76 77 76 77 77 76 75 76 75 75 73 73 74 74 75 75 75 75 75 75 74 74 76 76 76 77 78 77 75 77 81 80 81 82 81 81 81 81
77 78 78 78 77 77 76 76 76 75 77 77 77 77 75 74 73 73 74 74 74 74 74 73 73 74 73 75 77 77 78 80 79 76 74 82 80 80 81 82 81 81 81
79 79 79 77 77 77 75 74 76 76 77 76 75 76 76 75 73 74 73 74 74 75 74 74 74 74 74 75 77 77 79 80 80 79 77 79 81 80 81 82 82 82 81
81 81 79 77 78 77 75 74 74 75 76 75 76 76 77 76 76 76 76 75 76 74 74 74 74 75 74 77 76 77 78 78 80 80 78 78 79 81 81 80 81 81 81
82 80 79 82 78 77 77 76 77 76 76 78 76 75 77 77 76 75 77 76 76 75 74 73 73 73 75 74 74 75 76 77 77 79 78 78 78 80 80 81 81 80 81
81 80 78 79 77 77 76 77 76 76 77 78 78 77 76 77 76 76 76 76 74 74 73 73 73 73 72 73 73 73 74 75 76 80 78 78 77 79 78 80 80 80 81
78 80 79 79 78 78 78 75 75 74 75 75 75 77 77 77 76 75 73 73 73 74 74 73 71 74 73 74 78 78 74 74 75 74 75 79 77 78 78 78 77 80 81
76 77 79 78 76 78 77 74 72 73 73 74 75 78 77 77 77 75 75 73 72 73 74 73 71 71 72 73 71 72 72 74 73 75 75 76 77 78 78 77 76 77 78
78 77 78 79 77 79 80 75 74 73 73 75 75 76 77 77 77 77 76 75 73 74 72 72 71 70 70 71 69 68 66 69 72 75 76 78 77 79 78 79 78 78 78
77 78 79 78 77 79 76 74 73 73 73 73 74 74 76 78 78 77 77 77 72 73 75 73 73 71 71 70 71 70 63 62 64 70 73 75 77 74 75 76 79 79 78
81 81 79 76 72 74 75 77 76 75 76 79 77 80 76 77 78 78 78 77 76 74 73 72 73 72 70 72 70 73 70 68 65 64 70 72 72 71 71 71 75 78 79
81 82 75 76 74 75 77 77 76 76 77 76 73 75 74 73 77 78 78 78 77 76 77 75 73 72 74 74 71 69 70 70 68 67 67 68 70 71 72 73 73 75 80
81 81 79 75 74 74 74 76 75 74 74 74 74 73 72 73 75 78 79 78 78 78 77 76 75 74 74 73 71 70 70 68 69 67 67 68 66 69 70 71 71 71 74
MSLP
1014.59 1014.21 1014.20 1014.28 1014.39 1014.43 1014.51 1014.87 1014.92 1015.43 1015.80 1015.95 1015.71 1016.29 1016.60 1016.69 1016.78 1016.96 1017.20 1017.37 1017.45 1017.63 1017.89 1017.92 1018.11 1018.14 1018.50 1018.54 1018.62 1018.79 1018.97 1019.11 1018.99 1019.05 1019.08 1019.23 1019.35 1019.33 1019.36 1019.47 1019.49 1019.52 1019.64
1014.00 1014.30 1014.48 1014.40 1014.58 1014.71 1014.82 1015.01 1015.46 1015.86 1016.12 1016.45 1016.30 1016.53 1016.88 1017.11 1017.30 1017.46 1017.65 1017.92 1017.78 1017.87 1018.12 1018.22 1018.48 1018.51 1018.72 1018.81 1019.04 1019.25 1019.32 1019.45 1019.30 1019.24 1019.30 1019.46 1019.54 1019.58 1019.57 1019.63 1019.73 1019.85 1019.97
1014.20 1014.57 1014.73 1014.68 1014.73 1014.97 1015.14 1015.49 1015.70 1016.07 1016.40 1016.64 1016.86 1016.89 1017.11 1017.33 1017.56 1017.89 1017.91 1018.01 1018.34 1018.18 1018.36 1018.50 1018.74 1018.74 1018.93 1019.11 1019.28 1019.45 1019.59 1019.68 1019.68 1019.60 1019.72 1019.92 1019.91 1019.98 1019.88 1019.85 1020.00 1020.26 1020.37
1014.14 1014.69 1015.01 1014.94 1015.10 1015.33 1015.47 1015.71 1016.02 1016.41 1016.57 1016.79 1017.11 1017.17 1017.60 1017.44 1018.03 1018.23 1018.17 1018.27 1018.51 1018.42 1018.61 1018.74 1018.99 1019.10 1019.30 1019.38 1019.51 1019.69 1019.83 1019.91 1019.88 1019.99 1019.98 1020.12 1020.13 1020.32 1020.26 1020.31 1020.39 1020.54 1020.64
1014.31 1014.79 1015.15 1015.11 1015.36 1015.57 1015.74 1015.94 1016.39 1016.47 1016.91 1017.04 1017.26 1017.47 1017.79 1017.89 1018.34 1018.47 1018.55 1018.57 1018.67 1018.63 1018.73 1019.01 1019.26 1019.39 1019.58 1019.65 1019.87 1019.93 1020.15 1020.13 1019.91 1020.20 1020.30 1020.42 1020.51 1020.50 1020.59 1020.74 1020.77 1020.75 1020.86
1014.47 1014.76 1014.92 1015.20 1015.51 1015.78 1016.18 1016.28 1016.53 1016.93 1017.24 1017.36 1017.60 1017.69 1017.89 1018.25 1018.48 1018.74 1018.76 1018.83 1018.93 1018.93 1018.84 1019.01 1019.31 1019.49 1019.84 1020.01 1020.03 1020.19 1020.29 1020.24 1020.13 1020.32 1020.55 1020.52 1020.65 1020.66 1020.61 1020.76 1020.92 1021.01 1021.07
1014.50 1014.81 1015.05 1015.37 1015.62 1015.89 1016.32 1016.62 1016.82 1017.21 1017.46 1017.54 1017.62 1017.98 1018.10 1018.36 1018.60 1018.87 1018.96 1019.12 1019.19 1019.12 1019.14 1019.12 1019.25 1019.50 1019.81 1020.05 1020.09 1020.17 1020.23 1020.09 1020.09 1020.50 1020.72 1020.66 1020.63 1020.73 1020.78 1020.81 1020.96 1021.14 1021.21
1014.59 1014.91 1015.25 1015.53 1015.76 1016.02 1016.32 1016.81 1017.05 1017.22 1017.51 1017.69 1017.80 1018.10 1018.36 1018.61 1018.77 1018.89 1019.09 1019.20 1019.39 1019.21 1019.34 1019.30 1019.38 1019.54 1019.91 1020.09 1020.16 1020.23 1020.15 1020.02 1020.24 1020.46 1020.81 1020.67 1020.51 1020.68 1020.85 1020.95 1021.04 1021.19 1021.36
1014.80 1015.14 1015.52 1015.66 1015.88 1016.16 1016.56 1016.80 1017.10 1017.28 1017.53 1017.81 1018.14 1018.29 1018.45 1018.77 1018.85 1018.95 1019.19 1019.29 1019.40 1019.45 1019.42 1019.44 1019.49 1019.54 1019.95 1020.09 1020.24 1020.19 1020.11 1020.00 1020.25 1020.54 1020.78 1020.83 1020.61 1020.45 1020.66 1020.89 1021.07 1021.20 1021.34
1015.08 1015.30 1015.68 1015.87 1015.94 1016.36 1016.68 1016.92 1017.08 1017.31 1017.62 1017.91 1017.98 1018.36 1018.56 1018.66 1018.85 1019.11 1019.24 1019.40 1019.38 1019.51 1019.55 1019.54 1019.61 1019.65 1019.91 1020.10 1020.24 1020.24 1020.11 1020.17 1020.46 1020.53 1020.59 1020.75 1020.65 1020.62 1020.59 1020.77 1020.97 1021.21 1021.38
1015.44 1015.66 1015.86 1016.11 1016.41 1016.61 1016.80 1017.06 1017.16 1017.41 1017.60 1017.81 1017.95 1018.22 1018.39 1018.63 1018.87 1019.07 1019.29 1019.31 1019.44 1019.55 1019.58 1019.62 1019.57 1019.69 1019.83 1020.04 1020.05 1020.32 1020.26 1020.21 1020.27 1020.31 1020.43 1020.58 1020.63 1020.58 1020.64 1020.65 1020.81 1021.05 1021.26
1015.43 1015.74 1015.99 1016.12 1016.48 1016.89 1017.01 1017.14 1017.41 1017.53 1017.65 1017.75 1017.84 1018.08 1018.44 1018.65 1018.91 1019.01 1019.13 1019.32 1019.35 1019.52 1019.65 1019.60 1019.59 1019.64 1019.85 1020.00 1020.05 1020.04 1020.12 1020.25 1020.24 1020.18 1020.36 1020.51 1020.68 1020.72 1020.70 1020.70 1020.73 1020.91 1021.10
1015.06 1015.55 1015.80 1016.04 1016.35 1016.56 1016.66 1017.11 1017.52 1017.71 1017.66 1017.81 1017.91 1018.09 1018.46 1018.71 1018.91 1019.01 1019.14 1019.25 1019.31 1019.38 1019.64 1019.70 1019.74 1019.81 1019.98 1020.01 1019.93 1019.95 1019.85 1019.85 1019.94 1020.01 1020.14 1020.33 1020.47 1020.52 1020.63 1020.63 1020.69 1020.78 1020.94
1014.96 1015.11 1015.56 1015.77 1016.09 1016.39 1016.48 1016.81 1017.08 1017.42 1017.65 1017.75 1017.82 1018.01 1018.33 1018.61 1018.85 1019.07 1019.21 1019.20 1019.23 1019.45 1019.65 1019.75 1019.97 1019.91 1019.97 1020.08 1019.85 1019.95 1019.98 1019.68 1019.64 1019.73 1019.80 1020.16 1020.33 1020.37 1020.43 1020.62 1020.56 1020.55 1020.66
1014.66 1014.86 1015.33 1015.74 1015.95 1016.16 1016.37 1016.66 1016.91 1017.19 1017.30 1017.47 1017.70 1017.83 1018.01 1018.40 1018.48 1018.58 1018.93 1019.09 1019.34 1019.51 1019.57 1019.72 1019.83 1019.95 1020.00 1020.05 1019.75 1019.69 1019.68 1019.43 1019.29 1019.38 1019.59 1019.69 1020.01 1020.30 1020.35 1020.44 1020.59 1020.46 1020.44
1014.13 1014.51 1014.99 1015.48 1015.62 1015.94 1016.32 1016.56 1016.67 1016.93 1017.08 1017.41 1017.46 1017.48 1017.63 1018.08 1018.24 1018.46 1018.77 1018.96 1019.19 1019.30 1019.35 1019.46 1019.74 1019.67 1019.77 1019.78 1019.46 1019.39 1019.33 1019.14 1019.20 1019.26 1019.44 1019.68 1019.61 1019.75 1019.94 1020.06 1020.32 1020.44 1020.32
1013.46 1014.08 1014.72 1015.21 1015.43 1015.85 1016.13 1016.34 1016.61 1016.71 1016.97 1017.14 1017.16 1017.21 1017.31 1017.66 1017.93 1018.06 1018.18 1018.42 1018.50 1018.86 1019.07 1019.26 1019.34 1019.48 1019.65 1019.51 1019.56 1019.04 1019.01 1019.19 1018.89 1018.89 1019.02 1019.30 1019.39 1019.64 1019.78 1019.49 1019.63 1019.91 1020.11
1012.96 1013.62 1014.32 1015.00 1015.41 1015.74 1015.93 1015.99 1016.23 1016.56 1016.80 1016.87 1017.01 1017.13 1017.20 1017.35 1017.62 1017.89 1017.94 1018.12 1018.09 1018.43 1018.68 1018.99 1019.05 1019.21 1019.30 1019.35 1019.34 1019.12 1018.67 1018.69 1018.91 1018.73 1018.69 1018.84 1019.02 1019.19 1019.33 1019.35 1019.22 1019.36 1019.51
1012.31 1013.13 1013.89 1014.50 1015.04 1015.44 1015.65 1015.80 1015.92 1016.25 1016.53 1016.54 1016.62 1016.83 1017.01 1017.22 1017.50 1017.69 1017.79 1017.71 1017.75 1017.98 1018.35 1018.61 1018.83 1019.04 1019.09 1018.92 1019.01 1018.83 1018.67 1018.50 1018.31 1018.38 1018.46 1018.47 1018.56 1018.65 1018.79 1018.73 1018.80 1018.89 1018.94
1012.39 1012.92 1013.50 1014.00 1014.57 1015.10 1015.48 1015.61 1015.92 1016.17 1016.24 1016.34 1016.54 1016.71 1016.78 1017.00 1017.19 1017.43 1017.53 1017.64 1017.64 1017.79 1017.99 1018.40 1018.64 1018.62 1018.65 1018.60 1018.62 1018.45 1018.36 1018.24 1017.94 1017.98 1017.93 1017.97 1018.04 1018.09 1018.16 1018.21 1018.26 1018.34 1018.30
1012.62 1013.15 1013.55 1013.80 1014.17 1014.70 1015.23 1015.63 1015.85 1015.79 1015.69 1015.88 1015.89 1015.99 1016.33 1016.57 1016.83 1017.01 1017.21 1017.38 1017.45 1017.74 1017.91 1017.91 1018.09 1018.35 1018.56 1018.60 1018.70 1018.62 1018.38 1018.07 1018.00 1017.79 1017.54 1017.38 1017.39 1017.47 1017.51 1017.58 1017.74 1017.90 1017.85
1012.20 1012.34 1013.06 1013.33 1013.74 1014.03 1014.35 1014.61 1014.86 1015.09 1015.16 1015.21 1015.42 1015.64 1015.81 1015.96 1016.21 1016.43 1016.59 1017.06 1017.23 1017.60 1017.67 1017.74 1017.95 1018.14 1017.96 1018.16 1018.57 1018.95 1018.90 1018.36 1017.74 1017.34 1017.21 1017.20 1017.00 1016.81 1016.93 1016.94 1017.10 1017.20 1017.16
1011.92 1012.32 1012.11 1012.61 1013.28 1013.67 1013.93 1014.37 1014.75 1014.85 1014.97 1015.03 1015.01 1015.18 1015.26 1015.45 1015.65 1015.95 1016.18 1016.31 1016.62 1016.91 1017.24 1017.31 1017.57 1017.87 1017.96 1018.00 1017.98 1018.37 1019.11 1018.94 1018.30 1017.25 1016.84 1016.67 1016.58 1016.56 1016.41 1016.40 1016.36 1016.38 1016.43
1011.36 1011.58 1012.16 1012.94 1013.50 1013.75 1013.94 1014.25 1014.43 1014.48 1014.70 1014.59 1014.90 1014.82 1014.90 1014.69 1014.93 1015.29 1015.42 1015.49 1015.69 1016.17 1016.49 1016.67 1016.87 1017.08 1017.44 1017.70 1017.93 1017.84 1017.99 1018.24 1018.47 1018.27 1017.28 1016.68 1016.57 1016.40 1016.42 1016.29 1015.94 1015.78 1015.63
1011.69 1011.90 1012.36 1012.84 1013.55 1013.77 1013.93 1014.06 1014.37 1014.49 1014.54 1014.61 1014.89 1014.78 1014.59 1014.72 1014.58 1014.61 1014.53 1014.76 1015.15 1015.38 1015.56 1015.78 1016.21 1016.49 1016.72 1016.96 1017.28 1017.47 1017.68 1017.86 1018.08 1018.42 1018.08 1017.31 1016.53 1016.02 1016.01 1015.91 1015.46 1015.37 1014.95
1011.61 1012.10 1012.68 1013.20 1013.52 1013.65 1013.78 1013.92 1014.11 1014.29 1014.44 1014.56 1014.61 1014.63 1014.45 1014.26 1014.19 1014.07 1014.05 1014.05 1014.07 1014.51 1014.93 1015.20 1015.47 1015.72 1015.93 1016.23 1016.43 1016.63 1016.83 1017.12 1017.39 1017.75 1017.84 1017.45 1017.06 1016.07 1015.63 1015.53 1015.34 1014.89 1014.67
Wind_Speed
5 11 17 18 19 20 23 22 19 21 20 21 23 22 21 20 20 18 17 17 19 16 16 16 15 15 15 16 16 17 17 17 19 18 18 15 14 16 15 16 15 11 16
13 13 17 20 20 18 21 21 21 20 21 20 21 22 20 19 18 18 17 17 18 17 16 15 14 15 15 15 15 16 17 16 17 17 16 14 14 15 15 16 15 11 15
13 13 13 18 21 20 19 21 20 20 20 20 20 20 19 19 18 18 18 17 15 16 15 14 13 14 14 13 14 15 15 15 16 17 16 6 8 15 14 16 15 15 14
14 12 11 17 20 20 21 19 18 20 20 19 19 19 17 18 16 16 17 17 14 15 13 13 12 12 12 12 12 12 11 12 15 15 6 5 10 13 14 14 13 13 13
13 10 13 18 19 19 20 20 18 18 18 17 18 18 16 16 14 14 14 14 13 14 12 10 9 10 11 10 9 10 9 7 4 9 5 6 4 11 13 12 12 12 12
12 8 16 19 19 19 18 18 17 17 17 17 16 17 16 15 13 12 13 12 10 11 12 10 7 8 9 9 8 7 4 1 3 6 5 8 5 11 12 12 12 11 10
12 11 13 18 17 17 17 17 17 16 15 16 16 16 15 14 13 11 11 11 10 9 9 9 7 6 7 7 8 6 3 4 7 6 4 6 6 12 12 12 11 9 8
14 11 11 18 17 17 19 18 17 17 16 15 16 15 14 13 12 11 11 11 9 9 7 8 6 4 3 3 5 6 2 8 7 6 4 4 11 13 12 11 11 10 8
13 11 9 12 15 19 18 19 18 16 16 16 15 14 14 13 11 12 11 10 9 8 7 7 5 4 2 2 1 4 3 7 6 5 6 3 11 15 15 12 11 10 10
13 10 7 8 12 11 11 17 17 16 16 16 15 14 13 12 11 10 8 8 9 8 7 7 6 5 4 3 3 2 2 3 5 6 4 3 12 14 15 14 12 10 10
11 10 8 6 5 6 9 12 15 18 18 17 16 15 11 4 6 8 8 8 8 7 7 7 6 6 6 5 5 4 4 2 2 4 4 10 13 14 15 15 14 12 11
13 12 10 9 7 6 7 6 5 7 5 5 6 7 4 5 5 6 8 10 8 7 8 8 8 8 6 2 3 6 2 3 3 5 3 12 13 15 15 14 14 13 12
14 10 12 10 8 9 8 5 2 2 3 3 5 5 4 3 3 2 2 3 3 7 3 5 4 3 3 4 3 4 4 4 2 3 6 15 15 17 16 16 15 14 14
14 14 14 12 11 8 6 5 6 5 4 4 5 6 5 3 4 4 3 4 4 3 4 4 2 3 5 5 5 4 5 5 3 3 6 15 15 16 17 16 16 16 15
14 13 14 13 12 9 10 7 6 5 6 6 5 6 5 4 4 5 4 4 3 3 4 4 4 4 4 6 6 6 5 6 5 4 3 17 15 15 16 17 17 16 15
16 14 13 12 11 10 8 8 7 5 5 5 5 6 7 5 4 4 4 5 4 4 4 4 4 4 5 5 7 5 5 4 5 5 4 7 16 17 16 16 16 16 16
17 16 14 12 9 10 8 7 4 4 4 4 5 6 7 7 8 7 6 7 6 5 6 4 5 4 4 5 6 5 4 5 5 6 6 6 7 15 15 18 17 16 16
15 19 15 12 12 10 8 7 5 4 4 6 5 4 7 7 7 6 6 6 6 4 4 4 4 4 5 4 4 5 4 4 5 6 5 5 6 6 12 18 17 17 17
17 18 16 14 13 12 7 7 6 6 6 7 6 6 7 8 7 6 6 6 5 4 4 4 4 3 4 4 5 5 5 5 6 4 6 6 8 8 7 14 16 16 19
12 16 16 13 14 12 8 5 3 4 5 5 5 6 9 8 8 7 4 5 5 4 4 4 5 4 4 5 4 4 4 4 5 5 6 6 7 9 9 9 7 10 19
9 11 13 14 13 10 8 5 4 4 3 4 5 10 9 9 10 9 6 5 4 5 7 6 5 6 4 4 2 2 3 5 6 6 5 5 5 8 9 8 6 6 7
15 15 12 14 13 12 9 4 4 4 3 3 3 5 8 10 10 10 10 8 6 5 6 6 5 3 4 5 4 2 3 5 3 6 5 7 9 6 7 9 9 10 9
10 13 17 17 15 11 8 4 2 1 2 1 3 3 7 11 11 12 11 9 7 7 7 7 7 7 5 3 5 4 1 4 2 2 5 5 7 4 6 6 9 10 10
16 15 8 8 7 6 7 6 7 6 7 6 5 5 5 9 11 12 13 13 12 8 9 6 6 6 4 6 1 4 2 4 3 4 3 3 3 6 7 4 5 8 10
7 8 6 7 7 6 8 7 6 8 5 4 2 6 6 5 9 12 14 13 12 9 11 10 7 8 7 6 4 3 5 4 2 4 9 5 4 3 4 4 5 6 8
7 6 6 4 4 5 6 7 8 8 8 5 6 6 6 4 6 12 13 13 13 13 11 10 10 9 9 7 5 5 5 4 5 5 7 8 5 4 3 5 5 5 5
Wind_Direction
145 128 125 118 117 121 118 115 110 112 111 116 114 115 115 116 111 108 106 107 107 106 104 105 107 106 108 109 110 108 109 112 111 107 107 111 116 119 114 109 105 102 105
136 132 125 121 120 115 113 116 118 114 114 115 114 120 116 110 106 101 103 104 104 107 103 103 108 107 109 108 108 114 116 114 109 105 109 110 117 110 111 110 108 112 112
135 135 135 125 124 122 114 117 116 119 118 118 116 117 117 112 107 111 111 105 100 99 103 103 103 107 107 107 111 115 119 119 109 108 103 95 102 109 114 115 112 110 111
135 139 141 135 128 127 124 119 121 124 123 123 121 114 120 111 113 115 112 112 107 101 102 106 111 111 107 107 115 115 125 130 117 115 106 110 113 113 109 111 113 117 113
137 143 150 142 136 133 132 131 128 124 127 123 122 118 115 113 117 115 116 113 116 115 109 104 112 115 112 111 110 120 133 145 158 109 103 106 105 120 119 119 116 114 120
139 144 144 149 146 139 141 138 133 132 131 131 125 125 121 123 121 123 120 122 123 119 121 116 119 121 120 114 117 106 116 58 265 129 126 127 118 130 128 134 117 122 128
140 144 143 144 144 146 146 145 135 135 131 132 128 129 129 129 132 133 126 116 124 126 125 124 131 135 130 130 125 106 68 359 103 109 132 139 132 125 126 123 123 121 132
143 143 147 146 147 146 145 145 141 145 140 136 136 135 134 139 141 134 133 130 131 121 133 133 139 144 150 137 122 105 83 83 122 126 156 154 144 140 137 136 138 139 136
141 145 148 149 150 150 151 151 152 150 153 150 149 146 146 150 149 146 144 144 137 136 140 136 150 180 214 250 147 96 51 70 131 135 162 183 159 151 149 148 148 148 146
145 144 145 157 151 152 157 158 158 158 160 160 156 157 157 158 153 155 153 156 149 162 158 160 175 201 218 249 276 111 6 56 138 164 163 195 173 164 159 159 161 165 166
144 149 148 140 137 148 156 168 167 169 169 167 166 170 170 159 164 173 170 169 163 172 187 183 193 217 224 244 262 260 232 212 214 181 170 195 186 175 173 168 168 170 175
156 159 159 156 151 143 159 161 158 178 169 168 165 172 164 171 179 181 179 189 185 190 203 197 208 224 239 236 276 287 270 210 213 190 176 189 194 189 184 178 177 180 182
168 163 170 167 162 166 163 152 159 171 164 167 173 174 165 169 202 199 180 187 180 200 207 207 221 228 247 245 256 266 267 269 236 166 179 190 198 198 196 190 187 187 193
174 175 173 171 168 177 162 171 173 171 186 189 199 181 172 176 191 186 190 184 181 202 201 214 233 244 249 260 249 257 250 257 200 194 189 194 205 208 203 205 197 194 197
179 179 179 174 176 176 170 176 182 179 191 199 195 198 172 173 180 157 175 169 197 195 205 215 222 244 257 259 252 241 244 246 176 185 185 195 205 217 216 210 212 206 206
181 185 178 180 178 173 177 182 189 183 195 186 196 198 172 176 180 175 176 189 201 200 207 210 216 221 246 251 270 243 214 219 189 192 173 213 208 214 218 208 218 222 215
182 177 182 176 177 184 184 185 182 190 184 198 206 204 194 176 187 189 188 196 200 195 202 212 244 224 232 246 258 282 229 217 223 217 185 196 221 229 225 216 213 218 227
173 174 176 178 180 188 191 190 191 189 187 209 206 200 207 201 186 188 203 210 208 185 182 202 216 228 217 215 231 247 259 249 220 231 189 197 205 207 224 232 219 217 223
170 170 174 175 180 190 191 198 199 184 207 210 204 196 206 210 201 195 210 219 200 190 197 206 229 197 211 220 235 242 250 254 247 201 212 212 208 206 208 229 223 221 223
159 170 174 173 180 187 194 186 174 167 199 179 193 206 199 208 206 202 208 228 206 197 212 199 218 221 207 219 231 244 251 258 267 260 233 204 212 209 210 218 214 224 230
140 161 174 172 182 175 182 180 181 204 195 181 187 194 199 203 207 202 212 217 206 210 231 209 199 210 226 212 153 304 285 247 248 243 257 263 233 207 209 213 204 216 231
169 163 175 187 180 185 186 180 170 175 206 186 175 196 200 199 202 204 204 221 209 220 234 233 204 222 213 183 166 94 310 322 277 238 224 235 244 238 209 215 212 219 224
179 177 181 185 187 191 184 133 89 57 327 276 226 208 197 206 203 206 208 208 211 200 222 215 210 211 226 216 198 149 87 239 333 297 245 239 242 237 244 209 215 221 226
183 191 170 172 175 194 168 184 192 200 222 224 231 242 229 202 205 207 212 214 213 218 219 211 207 206 166 217 190 226 208 159 200 323 325 300 268 232 244 246 225 230 227
154 159 189 155 174 192 192 190 200 223 229 235 244 239 234 227 219 219 216 216 220 217 225 213 203 206 210 216 192 163 218 226 192 209 275 286 316 268 261 251 235 230 236
141 144 146 165 190 198 202 213 204 212 227 228 230 234 239 233 216 223 231 225 222 222 221 220 217 210 207 211 200 194 194 183 210 209 241 260 255 278 250 245 237 229 226